User: anonymous   Login
Location: Harburg
(48.7667°N, 10.6667°E)
Time: 02:32:11
(UTC+00:00)
Language:

Cosmos 1833 Rocket - Orbit

View from above orbital plane
View from above orbital plane
View from above satellite
View from above satellite

Ground track
Ground track

The orbit data is extracted from the following two-line orbital elements,

1 17590U 87027B   20334.82974724 -.00000238  00000-0 -95058-4 0  9997
2 17590  71.0040  13.1354 0005595 205.7576 154.3270 14.16792340742810
Epoch (UTC): 29 November 2020 19:54:50
Eccentricity: 0.0005595
inclination: 71.0040°
perigee height: 832 km
apogee height: 840 km
right ascension of ascending node: 13.1354°
argument of perigee: 205.7576°
revolutions per day: 14.16792340
mean anomaly at epoch: 154.3270°
orbit number at epoch: 74281

The dashed part of the orbit path shows where the satellite is in the earth's shadow,  

DLR